Back to catalog

STARLINK-1672

AliveCommunicationsVLEO
NORAD 46537·PAYLOAD·🇺🇸 United States

Launched Oct 6, 2020 from Cape Canaveral Space Force Station

Loading…

Next Passes (next 24 hours)

TLE

FreshSource: CelesTrak SupGP

Epoch: Sep 14, 2026, 20:15 UTC

1 46537C 20070F   26257.84423611  .00273580  00000+0  79049-3 0  2578
2 46537  53.0304 287.7173 0009103  15.8299 356.1764 15.92074115    12

Track STARLINK-1672 in real time with AllMySat

Download on the App Store